Wetbulb
37.01 38.54 38.49 39.62 40.85 41.96 43.36 44.90 45.68 45.25 54.15 56.77 58.28 62.54 64.86 64.75 63.02 62.38 63.23 55.65 53.08 52.76 53.82 55.68 57.35 57.81 57.86 58.18 58.54 58.90 59.87 59.88 60.05 59.85 60.29 60.79 61.46 61.53
36.97 37.81 37.81 38.68 39.40 41.31 43.19 44.99 46.23 46.66 46.66 56.73 58.30 61.63 63.52 64.67 63.13 63.71 63.07 55.57 52.15 51.06 51.35 52.20 54.19 55.95 55.97 56.21 56.11 56.54 57.40 57.97 58.53 58.68 59.02 59.45 60.27 61.03
36.90 36.41 37.32 38.12 38.07 39.45 41.05 41.39 42.23 46.15 44.29 55.63 58.37 60.23 61.03 63.31 64.70 63.98 63.37 62.39 58.05 50.17 50.20 50.49 51.11 52.38 53.05 53.14 53.34 54.07 54.61 55.43 56.26 56.76 57.48 58.30 59.13 60.03
35.40 35.90 36.15 38.14 37.10 38.03 37.78 38.11 39.66 42.50 43.49 50.37 55.85 56.67 57.83 59.69 63.64 63.62 64.49 63.90 63.29 53.01 50.17 49.97 50.02 50.20 50.38 50.57 50.47 50.73 51.21 51.93 52.65 53.60 54.51 56.14 57.36 58.22
34.80 35.43 35.57 36.82 36.15 35.65 36.15 37.05 37.93 40.48 41.97 42.89 54.10 56.85 57.57 58.15 57.56 61.00 64.13 63.91 64.05 56.35 49.98 49.22 49.48 49.48 49.48 49.48 49.80 49.45 49.50 49.64 49.69 49.90 50.45 51.37 52.87 54.66
34.75 35.38 35.53 35.80 35.88 35.01 35.56 35.83 37.15 37.12 39.48 42.95 54.89 54.67 55.37 56.93 57.61 56.23 59.84 62.91 62.80 62.45 53.89 52.19 50.74 49.55 49.26 49.28 49.46 49.58 49.21 49.16 48.83 48.66 48.12 47.68 48.17 49.92
33.90 34.66 34.88 36.18 36.57 36.18 35.50 35.47 35.88 36.61 38.23 41.89 49.30 53.98 53.77 54.20 54.31 56.91 56.53 60.25 61.29 62.40 57.45 55.67 54.79 53.67 52.22 47.77 51.37 49.67 48.87 48.59 48.62 48.50 48.27 46.96 46.62 47.45
32.73 33.79 34.47 35.17 35.46 35.50 35.91 36.06 36.13 36.90 37.87 40.26 44.42 50.91 53.37 54.00 55.45 55.69 56.05 55.21 57.03 61.31 58.89 56.11 56.87 55.71 56.59 55.37 51.21 49.12 47.25 48.03 47.99 47.80 47.96 47.25 46.37 45.92
32.64 33.09 33.58 34.36 34.29 34.46 35.01 35.67 36.15 36.60 32.33 37.00 39.93 43.46 46.36 53.63 55.47 54.88 55.45 55.85 55.73 58.91 59.83 57.86 55.34 56.43 57.34 57.35 48.75 47.12 46.56 47.00 46.85 46.31 46.06 45.44 44.98 44.86
32.35 32.79 32.18 32.71 33.40 33.64 34.05 34.03 35.47 36.27 36.29 36.88 37.69 39.64 42.27 44.15 45.89 55.67 56.03 56.25 56.51 57.13 59.68 57.31 53.43 54.77 57.12 57.45 47.99 47.30 46.92 45.78 46.45 46.47 46.38 45.51 44.64 44.28
31.51 31.79 31.85 32.01 33.46 34.06 32.41 32.08 32.80 34.03 36.04 36.66 37.48 37.81 37.87 39.00 39.33 47.39 53.87 52.95 49.72 50.34 56.67 56.63 44.95 43.86 42.57 55.23 56.09 46.43 45.64 45.58 45.55 45.35 45.62 45.28 44.62 44.04
30.26 30.88 31.46 31.60 32.08 32.28 31.00 30.51 29.88 31.54 33.07 34.18 35.51 36.65 37.81 38.88 36.64 41.25 45.71 53.67 51.37 42.59 49.54 53.73 40.78 43.50 42.95 39.87 47.77 51.44 49.92 43.13 43.99 44.28 44.95 44.72 44.23 48.96
28.42 28.49 28.71 31.27 31.10 30.96 30.67 29.82 29.70 32.18 32.29 32.67 33.39 34.12 35.04 35.97 36.85 37.55 39.49 41.64 48.86 49.13 46.18 55.06 42.05 38.42 42.59 40.60 37.51 48.03 52.34 47.99 47.94 45.67 42.88 43.67 43.36 47.36
27.13 27.45 27.73 29.72 29.72 29.40 29.12 29.33 29.91 30.37 31.13 31.37 31.34 31.54 32.10 32.65 34.18 35.36 36.48 37.79 40.68 42.35 43.51 46.53 44.95 49.35 49.60 38.96 48.66 39.15 43.68 47.95 47.34 48.19 47.32 45.04 41.22 41.55
26.63 27.35 28.09 28.48 27.92 26.85 28.42 27.98 27.76 27.76 28.36 28.29 28.82 30.32 31.75 32.88 33.81 33.90 34.70 35.34 35.98 36.17 38.51 39.56 41.45 44.86 49.62 50.47 49.51 42.95 43.86 41.32 47.45 47.74 45.78 46.27 45.30 42.91
25.89 24.99 25.12 25.84 25.81 25.09 25.02 25.53 25.87 26.26 26.35 27.03 27.68 29.80 31.90 32.27 32.58 33.43 33.19 34.17 33.48 34.22 35.45 35.55 36.84 38.49 36.77 44.86 49.65 44.57 44.38 48.89 40.96 48.55 50.27 45.40 45.64 46.00
23.73 23.35 22.76 22.50 23.06 22.84 23.36 23.21 23.59 23.95 24.61 26.03 26.46 27.13 28.31 30.54 31.50 32.73 32.78 33.40 32.94 32.59 33.30 34.94 35.07 34.77 33.81 35.62 38.04 43.12 42.41 40.78 45.64 41.86 42.77 40.96 41.85 47.05
23.02 19.19 19.83 20.71 20.13 21.20 20.81 21.41 21.76 21.90 23.13 25.00 25.17 25.96 25.99 27.87 29.78 31.37 32.01 31.73 31.75 32.31 32.70 33.64 34.34 33.78 34.01 34.17 35.45 34.40 35.47 35.14 35.85 36.74 37.69 43.13 50.81 39.87
20.28 18.29 17.85 19.08 19.47 20.89 19.60 20.08 20.20 20.86 22.37 22.99 23.50 24.23 25.24 26.91 28.20 29.10 30.38 30.51 30.50 31.55 32.38 33.30 33.07 32.49 32.42 32.94 33.33 34.57 33.27 33.66 33.49 34.78 34.34 34.58 35.14 35.28
19.10 18.61 17.48 18.31 19.11 19.40 17.69 18.42 19.70 19.24 19.19 20.37 21.26 22.26 23.00 24.87 26.45 27.28 28.47 29.06 29.74 30.36 30.81 32.33 32.49 31.40 31.19 31.05 31.64 33.24 34.16 33.43 32.94 33.45 33.66 33.81 33.13 32.36
17.79 18.53 17.89 17.70 18.16 19.05 16.92 16.44 17.34 16.47 17.09 17.25 18.32 19.76 20.53 23.15 24.68 26.50 27.22 27.51 29.01 29.86 28.95 29.59 31.48 31.99 33.70 32.86 32.14 32.29 33.19 34.53 34.01 33.06 32.69 32.57 32.95 33.30
17.05 17.62 17.42 17.32 16.90 17.87 15.66 14.64 15.17 14.55 15.45 16.32 16.55 17.84 18.78 21.73 23.62 24.83 26.02 26.25 27.59 29.24 30.26 31.40 32.29 32.74 32.14 31.93 30.69 31.07 31.76 33.16 34.38 33.70 33.24 32.98 32.57 32.36
16.16 16.63 16.62 16.11 15.97 16.51 15.14 14.10 14.20 12.68 14.31 15.23 15.79 16.86 17.54 19.73 22.83 24.31 25.01 26.08 26.79 27.49 28.84 29.35 30.72 31.60 31.51 31.80 30.90 30.72 31.08 31.93 32.51 32.46 32.98 31.97 32.20 32.36
MSLP
1018.62 1017.85 1017.33 1016.75 1015.90 1015.01 1014.64 1014.36 1013.63 1012.22 1010.13 1009.87 1010.01 1010.14 1010.24 1011.00 1011.60 1012.58 1012.99 1014.04 1014.44 1015.37 1016.06 1016.63 1017.34 1018.17 1018.94 1019.70 1020.28 1020.90 1021.48 1022.14 1022.88 1023.57 1024.19 1024.78 1025.32 1025.77
1018.71 1017.90 1017.39 1016.75 1016.17 1015.58 1014.76 1014.26 1013.90 1012.94 1011.80 1009.71 1009.38 1009.20 1009.42 1010.02 1010.90 1011.71 1012.29 1012.77 1013.83 1014.48 1015.31 1015.90 1016.52 1017.26 1018.13 1018.96 1019.64 1020.24 1020.76 1021.33 1021.95 1022.67 1023.35 1023.93 1024.55 1025.03
1018.88 1018.42 1017.89 1017.27 1016.23 1015.43 1014.87 1014.52 1013.74 1013.39 1012.38 1010.28 1009.50 1009.22 1009.27 1010.24 1010.50 1011.03 1011.44 1012.17 1013.01 1013.87 1014.45 1015.07 1015.76 1016.41 1017.25 1018.18 1018.99 1019.66 1020.21 1020.69 1021.16 1021.79 1022.49 1023.14 1023.73 1024.27
1019.14 1018.47 1017.76 1017.01 1016.32 1015.75 1015.21 1014.51 1013.81 1013.51 1013.31 1010.71 1009.44 1009.48 1009.56 1010.38 1010.30 1010.44 1010.66 1011.32 1011.79 1012.79 1013.51 1014.12 1014.91 1015.64 1016.43 1017.35 1018.24 1019.02 1019.66 1020.14 1020.61 1021.07 1021.64 1022.25 1022.86 1023.38
1019.17 1018.47 1017.96 1017.32 1016.60 1016.08 1015.30 1014.56 1013.96 1013.58 1012.80 1011.90 1009.76 1009.55 1009.64 1009.94 1010.07 1010.08 1009.97 1010.56 1011.02 1011.50 1012.44 1013.21 1014.00 1014.84 1015.56 1016.36 1017.23 1018.11 1018.82 1019.41 1019.93 1020.35 1020.84 1021.38 1021.96 1022.49
1019.44 1018.80 1018.23 1017.66 1017.02 1016.12 1015.46 1014.92 1014.32 1013.55 1012.72 1011.39 1009.19 1009.24 1009.40 1009.64 1009.98 1010.52 1009.68 1009.70 1010.27 1010.73 1011.80 1012.62 1013.35 1014.10 1014.74 1015.56 1016.34 1017.01 1017.77 1018.40 1018.99 1019.48 1019.99 1020.61 1021.17 1021.66
1019.55 1019.04 1018.52 1017.97 1017.31 1016.63 1015.90 1015.19 1014.50 1013.76 1012.60 1011.20 1009.98 1009.10 1009.28 1009.36 1009.63 1010.54 1009.68 1009.34 1009.65 1010.22 1011.29 1012.11 1012.91 1013.62 1014.25 1015.14 1015.70 1016.38 1016.65 1017.17 1017.80 1018.52 1019.22 1019.74 1020.30 1020.80
1019.90 1019.34 1018.79 1018.10 1017.24 1016.58 1015.77 1015.03 1014.55 1013.64 1012.46 1012.23 1010.96 1009.67 1009.06 1009.16 1009.24 1009.18 1009.45 1009.45 1009.40 1009.41 1010.39 1011.27 1011.85 1012.44 1012.82 1013.59 1014.09 1014.97 1015.61 1016.06 1016.66 1017.37 1018.02 1018.72 1019.38 1019.98
1020.24 1019.61 1019.03 1018.46 1017.69 1016.68 1015.71 1014.83 1014.17 1013.79 1013.40 1012.74 1011.89 1011.01 1010.51 1009.58 1009.24 1009.13 1009.08 1009.74 1009.20 1009.25 1009.56 1010.39 1011.22 1011.41 1011.59 1012.09 1012.82 1013.63 1014.32 1014.89 1015.60 1016.31 1017.05 1017.73 1018.30 1018.89
1020.85 1020.32 1019.72 1018.79 1018.04 1017.15 1016.15 1015.26 1014.44 1013.85 1013.49 1013.03 1012.53 1011.59 1011.33 1010.69 1010.30 1008.89 1008.67 1009.20 1008.93 1008.65 1009.36 1009.57 1010.33 1010.57 1010.71 1011.02 1011.67 1012.39 1013.04 1013.75 1014.31 1014.89 1015.54 1016.27 1016.97 1017.60
1021.43 1020.88 1020.32 1019.56 1018.71 1017.69 1016.88 1016.07 1015.21 1014.49 1013.65 1012.99 1012.31 1011.27 1011.37 1010.83 1010.30 1009.63 1008.88 1009.22 1009.54 1009.24 1009.31 1009.41 1009.94 1010.56 1010.46 1010.48 1010.65 1011.30 1011.84 1012.44 1013.17 1013.81 1014.45 1015.05 1015.71 1016.53
1021.88 1021.38 1020.89 1020.16 1019.35 1018.53 1017.75 1016.85 1015.95 1015.06 1014.21 1012.77 1011.15 1011.65 1011.81 1010.83 1010.65 1010.17 1010.03 1009.25 1009.73 1009.86 1010.10 1008.63 1010.37 1010.43 1010.80 1010.18 1010.13 1010.54 1011.26 1011.67 1012.13 1012.87 1013.55 1014.18 1014.91 1016.09
1022.57 1022.03 1021.50 1020.70 1019.88 1019.19 1018.51 1017.71 1016.97 1015.92 1014.79 1013.90 1013.73 1012.97 1012.21 1011.75 1011.48 1010.93 1010.79 1010.40 1009.62 1009.74 1009.08 1009.55 1009.39 1009.97 1010.06 1010.80 1010.35 1009.99 1010.13 1010.75 1011.64 1012.20 1012.78 1013.28 1014.08 1014.71
1023.51 1022.96 1022.13 1021.24 1020.46 1019.86 1019.18 1018.55 1017.76 1016.72 1015.84 1014.91 1014.36 1014.10 1013.52 1012.84 1012.27 1011.82 1011.39 1010.75 1010.23 1010.13 1010.55 1009.70 1009.87 1008.71 1009.65 1010.44 1010.55 1010.07 1009.92 1010.20 1010.68 1011.18 1011.58 1012.31 1013.27 1013.76
1024.17 1023.73 1022.92 1021.84 1021.19 1020.66 1020.18 1019.66 1018.93 1017.94 1017.17 1016.32 1016.02 1015.40 1014.65 1013.88 1013.00 1012.06 1011.41 1010.42 1010.26 1010.52 1010.28 1009.97 1009.65 1009.42 1009.55 1010.17 1009.89 1010.10 1010.07 1010.17 1010.24 1010.60 1010.99 1011.52 1012.19 1012.95
1024.79 1024.35 1023.75 1022.98 1022.20 1021.69 1020.90 1020.30 1019.72 1019.32 1018.92 1018.10 1017.15 1016.48 1015.39 1014.37 1013.80 1012.96 1012.40 1011.51 1011.24 1011.30 1010.95 1010.54 1010.43 1010.76 1010.96 1010.62 1009.93 1009.90 1009.96 1010.16 1010.14 1010.28 1010.33 1010.62 1011.13 1011.51
1025.67 1024.99 1024.23 1023.67 1023.09 1022.54 1021.85 1021.39 1020.85 1020.40 1019.60 1018.99 1018.35 1017.69 1016.85 1015.64 1014.70 1013.98 1013.30 1012.68 1012.80 1012.82 1012.33 1011.84 1011.51 1011.09 1010.88 1010.72 1010.75 1010.03 1010.09 1009.90 1009.75 1010.52 1010.31 1010.50 1010.55 1010.44
1026.36 1026.08 1025.64 1025.14 1024.60 1024.08 1023.50 1022.66 1022.03 1021.46 1020.77 1019.96 1019.27 1018.62 1017.86 1016.74 1015.97 1015.07 1014.64 1014.36 1013.88 1013.55 1013.16 1012.33 1011.96 1011.44 1011.53 1011.44 1011.03 1010.81 1010.44 1010.10 1010.53 1010.92 1010.31 1010.75 1010.27 1009.92
1027.18 1027.19 1027.03 1026.54 1025.96 1025.33 1024.80 1024.13 1023.36 1022.84 1022.16 1021.18 1020.39 1019.48 1018.75 1017.88 1017.05 1016.30 1015.74 1015.18 1014.65 1014.19 1013.74 1013.38 1012.91 1012.37 1012.21 1011.80 1011.97 1011.63 1011.52 1011.22 1010.73 1011.41 1011.47 1010.98 1010.89 1010.79
1028.34 1028.17 1028.06 1027.71 1027.14 1026.54 1026.11 1025.47 1024.64 1023.95 1023.21 1022.51 1021.53 1020.74 1019.87 1019.09 1018.13 1017.29 1016.70 1016.15 1015.71 1014.95 1014.76 1014.43 1013.98 1013.57 1013.45 1013.23 1012.74 1012.10 1011.84 1011.35 1011.25 1011.32 1010.17 1010.26 1010.73 1011.09
1029.46 1029.04 1028.87 1028.54 1028.11 1027.62 1027.25 1026.67 1026.02 1025.33 1024.53 1023.65 1022.78 1022.05 1021.22 1020.36 1019.43 1018.52 1017.87 1017.21 1016.54 1015.74 1015.25 1014.78 1014.67 1014.07 1013.46 1013.25 1012.95 1012.59 1012.34 1012.08 1012.05 1011.48 1011.57 1011.16 1010.93 1011.31
1030.45 1029.98 1029.64 1029.23 1028.84 1028.30 1027.96 1027.48 1026.78 1026.13 1025.48 1024.79 1023.99 1023.10 1022.27 1021.38 1020.39 1019.59 1018.80 1018.07 1017.43 1016.65 1015.70 1015.18 1014.88 1014.41 1014.03 1014.00 1013.51 1013.02 1012.70 1012.23 1011.82 1011.33 1011.31 1011.42 1011.52 1011.58
1031.32 1030.84 1030.43 1030.03 1029.54 1028.96 1028.58 1028.17 1027.66 1027.12 1026.39 1025.70 1024.92 1024.15 1023.29 1022.17 1021.21 1020.41 1019.54 1018.81 1018.06 1017.33 1016.39 1015.32 1015.20 1014.85 1014.53 1014.25 1014.00 1013.38 1013.07 1012.71 1012.53 1011.95 1011.57 1011.36 1011.42 1011.39
Wind_Speed
9 9 8 7 7 7 5 5 5 4 7 5 4 8 9 9 12 12 16 21 23 23 22 22 22 21 21 19 19 19 22 23 21 19 18 17 19 18
8 9 9 8 8 6 5 6 6 5 6 2 4 3 8 8 12 14 17 18 22 22 22 22 22 22 21 21 20 20 21 22 21 20 19 18 18 19
10 11 11 11 8 7 6 6 6 5 6 4 0 1 3 9 12 13 13 13 12 21 23 22 22 21 21 20 20 21 20 22 22 21 20 19 20 19
11 11 12 9 10 9 7 9 7 6 5 12 3 2 4 1 10 12 12 12 13 19 23 23 23 22 20 20 20 20 19 19 20 20 20 20 21 20
12 11 12 11 10 10 9 8 7 8 7 8 4 2 2 1 1 6 12 13 12 16 23 23 24 23 22 21 22 21 21 21 21 21 21 20 20 20
11 11 12 12 11 13 10 10 9 9 8 7 5 2 2 2 1 1 6 8 9 7 12 15 20 22 22 23 24 24 23 23 22 22 21 20 20 20
11 11 11 16 21 16 10 9 9 8 7 7 8 4 4 3 5 4 4 3 9 7 6 7 8 10 11 13 18 22 25 25 24 23 22 21 21 21
10 11 11 16 17 20 19 16 11 7 8 6 6 3 7 5 5 4 3 1 5 7 9 7 9 9 10 11 22 22 24 24 24 23 24 22 21 21
11 11 11 10 15 15 17 16 12 8 4 7 7 4 7 1 5 5 3 5 5 3 11 10 7 10 9 10 18 23 22 25 23 22 21 20 21 22
10 11 13 13 16 18 13 12 11 10 10 7 8 6 8 9 9 5 6 4 3 1 5 9 5 8 7 9 18 22 26 24 26 26 26 25 24 24
10 11 13 13 21 24 13 14 12 11 10 12 9 10 10 10 11 5 6 4 4 2 2 3 2 2 1 7 9 21 24 25 24 24 24 24 24 22
10 11 18 18 21 23 13 13 13 13 13 13 14 13 10 10 12 9 8 8 5 2 8 3 1 3 1 3 4 5 9 16 21 21 22 22 20 10
9 10 10 23 23 24 21 14 14 12 12 9 7 8 9 9 7 7 7 4 2 4 5 4 2 2 2 2 2 3 8 5 9 9 16 19 18 19
10 9 11 24 24 24 18 24 22 15 10 9 9 9 8 9 9 7 7 4 5 3 6 4 3 4 4 1 2 2 1 2 4 5 6 7 14 19
9 16 21 22 23 16 23 24 16 11 11 11 10 9 8 7 8 6 8 7 5 4 5 6 3 5 3 2 2 2 2 2 4 4 4 6 6 6
11 9 11 14 14 13 13 14 11 11 10 10 10 8 8 9 9 8 6 8 3 4 7 8 5 2 1 5 2 2 3 3 1 4 4 3 5 7
9 7 10 11 11 12 12 12 11 11 11 10 10 10 10 10 9 9 8 6 6 5 7 5 4 4 3 3 3 3 2 2 2 2 2 2 4 8
7 9 10 10 11 11 11 12 12 13 11 11 10 10 11 10 10 9 8 7 7 7 7 7 7 3 1 3 7 3 3 2 0 1 2 3 8 3
9 9 9 9 10 11 11 11 11 11 11 10 10 11 11 10 11 9 8 8 6 6 6 6 7 6 5 2 2 8 1 1 1 1 3 2 2 3
9 9 9 10 10 10 10 10 10 10 11 10 10 11 11 10 11 10 10 9 7 6 6 5 6 6 3 2 3 3 7 3 3 4 3 2 1 3
8 8 8 9 9 8 9 9 9 9 10 10 10 10 10 9 10 10 9 12 10 6 6 6 7 10 4 2 2 3 3 3 0 0 2 0 1 2
8 8 9 8 9 9 9 8 9 9 9 9 10 9 9 9 9 10 9 9 9 7 6 5 6 5 3 3 3 3 3 3 5 4 2 0 1 2
8 8 8 8 8 8 9 9 9 9 9 9 9 9 9 9 10 8 8 9 8 9 8 6 5 3 3 2 4 3 3 3 3 5 4 5 3 2
Wind_Direction
327 331 330 317 319 318 316 287 298 294 213 196 173 194 182 184 197 193 198 201 192 192 191 190 189 189 191 192 190 191 191 193 193 197 203 206 210 212
330 339 341 332 318 307 295 284 256 250 291 233 194 166 186 196 198 195 207 182 199 192 193 190 191 191 192 193 194 192 190 191 191 193 198 202 210 211
341 343 341 337 331 327 334 322 314 301 293 238 223 135 105 221 213 203 203 204 193 200 196 194 193 193 192 192 194 195 194 193 192 193 196 203 211 212
348 342 348 345 344 344 332 321 307 316 269 282 162 169 104 51 244 202 200 202 203 201 199 197 197 196 194 194 193 194 195 195 194 194 194 199 207 215
344 344 347 345 348 340 334 329 321 301 301 295 212 145 140 142 273 302 202 202 209 192 199 198 197 199 198 196 195 194 196 198 197 198 198 200 203 209
344 346 348 345 345 339 331 324 315 310 295 284 243 145 130 149 203 271 253 189 197 177 195 204 204 204 202 201 202 199 198 201 202 202 203 203 205 210
343 351 351 350 347 337 330 326 314 301 303 310 296 186 181 151 175 197 241 258 203 186 174 184 190 200 209 210 218 212 203 203 204 204 206 206 208 212
345 350 345 350 343 341 334 330 319 310 316 284 285 310 209 201 181 170 213 303 217 190 184 205 184 196 206 205 209 208 207 209 207 205 209 208 209 213
352 349 353 348 351 346 339 339 343 352 12 324 296 324 322 4 173 172 181 232 238 236 194 212 176 212 200 209 199 203 204 206 205 204 207 207 208 213
356 356 358 355 358 355 347 347 347 352 350 335 307 319 315 316 304 238 198 232 307 324 224 219 167 214 189 208 192 198 203 203 206 207 209 209 210 213
4 1 5 2 359 2 356 353 352 352 343 342 341 8 338 352 354 292 189 188 250 262 176 237 209 166 182 201 203 199 201 205 208 208 210 212 213 214
5 2 2 7 11 11 5 358 357 352 346 353 9 10 360 7 2 23 335 207 205 56 228 115 243 139 278 237 216 181 206 205 202 206 211 215 211 210
4 359 358 6 14 16 16 10 1 343 353 6 2 5 4 5 353 6 342 7 260 212 36 237 159 205 107 278 279 212 184 163 198 209 216 216 204 201
5 357 355 9 13 17 17 16 11 0 0 10 19 9 2 360 348 340 328 336 311 312 322 355 259 165 161 145 233 345 223 154 150 196 185 192 197 202
4 10 7 8 11 12 14 17 13 11 4 9 6 1 354 343 339 350 332 347 2 19 20 18 346 348 0 237 138 219 119 257 193 176 171 177 176 178
356 1 6 8 14 9 9 13 14 12 9 5 0 350 350 5 7 360 354 354 27 356 3 12 17 84 255 252 212 223 227 225 213 218 197 165 175 189
0 5 14 16 13 8 7 9 9 7 9 5 6 3 358 1 8 0 8 8 31 356 352 352 354 47 50 339 312 246 223 221 198 262 132 203 225 210
26 21 14 8 8 11 6 1 5 3 2 1 4 4 2 2 3 6 13 7 7 4 357 354 352 350 10 52 49 327 323 10 133 276 350 250 254 226
28 24 16 9 8 6 4 4 1 358 353 360 2 1 359 358 0 3 7 9 8 0 359 350 359 18 353 336 333 43 26 245 40 214 190 185 304 341
20 22 13 9 7 3 1 358 356 355 357 355 360 358 359 353 356 2 1 359 354 2 356 353 359 2 341 307 315 326 14 12 9 315 358 12 80 156
12 12 9 6 1 4 357 354 353 353 352 351 354 352 353 352 353 356 355 353 349 354 358 357 335 321 307 289 345 344 320 7 349 99 306 325 83 301
6 2 5 3 359 1 357 354 351 355 356 354 349 346 346 344 352 349 352 351 349 343 349 336 333 337 352 352 350 319 321 325 329 12 187 170 51 336
1 359 1 358 357 356 356 354 355 349 348 347 347 343 339 342 346 344 347 347 347 344 346 351 339 327 324 315 323 315 334 340 333 341 335 32 45 313